Regional Weather Roundup
Issued by NWS

Home | Current Version | Previous Version | Graphics & Text | Print | Product List | Glossary Off
Versions: 1 2 3 4 5 6 7 8 9 10 11 12 13 14 15 16 17 18 19 20 21 22 23 24 25 26 27 28 29 30 31 32 33 34 35 36 37 38 39 40 41 42 43 44 45 46 47 48 49 50

000
ASUS43 KDMX 231006
RWRIA

WEATHER ROUNDUP FOR IOWA
NATIONAL WEATHER SERVICE DES MOINES IA
500 AM CDT WED AUG 23 2017

NOTE: "FAIR" INDICATES FEW OR NO CLOUDS BELOW 12,000 FEET WITH NO
SIGNIFICANT WEATHER AND/OR OBSTRUCTIONS TO VISIBILITY.

* - THESE STATIONS ARE NOT NWS STATIONS...THUS NOT UNDER NWS
QUALITY CONTROL.  THEY ALSO DO NOT REPORT WEATHER SUCH
AS PRECIPITATION OR FOG.

IAZ001>003-012>014-020>022-031>034-043>046-231100-
   NORTHWEST IOWA

CITY           SKY/WX    TMP DP  RH WIND       PRES   REMARKS
CARROLL *        N/A     52  52 100 CALM      30.14F
CHEROKEE *     MOCLDY    50  50 100 CALM      30.15F FOG
DENISON *      CLEAR     50  50 100 CALM      30.17S
LE MARS *      FOG      106 N/A N/A CALM      30.15S VSB 3/4
ORANGE CITY *  PTCLDY    55  52  88 CALM      30.15S
SHELDON *      CLEAR     45  45 100 CALM      30.14S
SIOUX CITY     CLEAR     53  53 100 CALM      30.15F
SPENCER        CLEAR     47  46  97 W3        30.15S
STORM LAKE *   CLEAR     54  50  87 W9        30.15S
$$

IAZ055>058-069>071-079>083-090>094-231100-
   SOUTHWEST IOWA

CITY           SKY/WX    TMP DP  RH WIND       PRES   REMARKS
ATLANTIC *     CLEAR     50  50 100 CALM      30.15F FOG
AUDUBON *      CLEAR     48  46  93 CALM      30.16F
CLARINDA *     FOG       50  50 100 CALM      30.18F VSB 1/2
COUNCIL BLFS * CLEAR     57  57 100 SW5       30.16S
CRESTON *      CLEAR     55  52  88 NW3       30.17F
HARLAN  *      CLEAR     50  50 100 CALM      30.18F
LAMONI         CLEAR     55  51  86 NW3       30.15F
RED OAK *      FOG       52  52 100 CALM      30.16S VSB<1/4
SHENANDOAH *   CLEAR     52  50  93 CALM      30.16F
$$

IAZ047>049-059>061-072>074-084-231100-
   CENTRAL IOWA

CITY           SKY/WX    TMP DP  RH WIND       PRES   REMARKS
AMES           CLEAR     51  51 100 SW3       30.13S
ANKENY *       PTCLDY    52  52 100 CALM      30.14F
BOONE *        CLEAR     54  52  94 W7        30.13S
CHARITON *     CLEAR     54  52  94 W6        30.14S
DES MOINES     CLEAR     56  53  90 CALM      30.13F
GRINNELL*      CLEAR     51  49  93 CALM      30.14S
KNOXVILLE *    CLEAR     54  52  94 W7        30.12F
MARSHALLTOWN   CLEAR     50  49  96 NW6       30.12S
NEWTON *       CLEAR     52  52 100 W6        30.13S
PELLA *        CLEAR     55  54  97 NW3       30.14S
PERRY *          N/A     51  51  98 W5        30.15S
$$

IAZ004>006-015-016-023>025-035-036-231100-
   NORTH CENTRAL IOWA

CITY           SKY/WX    TMP DP  RH WIND       PRES   REMARKS
ALGONA *       CLEAR     52  52 100 W6        30.13S
CLARION *      CLEAR     46  46 100 S3        30.12F
ESTHERVILLE    CLEAR     50  50 100 W5        30.13S
FORT DODGE *   CLEAR     52  46  82 CALM      30.14F
MASON CITY     CLEAR     51  48  89 W9        30.12F
FOREST CITY *    N/A     46  46 100 CALM      30.12S
WEBSTER CITY * CLEAR     50  48  93 SW3       30.11F
IOWA FALLS *     N/A     51  49  93 CALM      30.14S
$$

IAZ007>011-017>019-026>030-037>042-050>054-066-231100-
   NORTHEAST IOWA

CITY           SKY/WX    TMP DP  RH WIND       PRES   REMARKS
CEDAR RAPIDS   CLEAR     50  49  96 NW6       30.09F
CHARLES CITY * CLEAR     52  52 100 W5        30.10F
CLINTON *      CLEAR     49  49 100 W7        30.08S
DECORAH *      PTCLDY    54  50  87 CALM      30.07S
DUBUQUE        CLEAR     51  48  89 W5        30.08S
MONTICELLO *   CLEAR     50  48  93 CALM      30.09R
OELWEIN *      CLEAR     50  50 100 W6        30.10F
WATERLOO       CLEAR     50  49  96 CALM      30.10S
$$

IAZ064-065-067-068-078-231100-
   EAST CENTRAL IOWA

CITY           SKY/WX    TMP DP  RH WIND       PRES   REMARKS
DAVENPORT      CLEAR     51  49  92 W5        30.10S
IOWA CITY        N/A     55  51  86 SW3       30.11S
MT. PLEASANT * CLEAR     54  53  97 W5        30.11F
MUSCATINE *    CLEAR     55  52  88 NW6       30.10S
QUAD CITIES    CLEAR     56  50  80 W5        30.08S
$$

IAZ062-063-075>077-085>089-095>099-231100-
   SOUTHEAST IOWA

CITY           SKY/WX    TMP DP  RH WIND       PRES   REMARKS
BURLINGTON     CLEAR     55  53  93 NW6       30.10S
FAIRFIELD *    CLEAR     52  50  93 W7        30.11F
FORT MADISON * CLEAR     54  52  94 W3        30.11F
KEOKUK *       CLEAR     55  52  88 CALM      30.10F
OSKALOOSA *      N/A     51  50  97 NW5       30.13S
CENTERVILLE *    N/A     50  50 100 CALM      30.15F
OTTUMWA        CLEAR     53  52  96 W7        30.12F
WASHINGTON *   CLEAR     52  52 100 W6        30.12S
$$

ABBREVIATIONS USED IN REMARKS
   TC - TEMPERATURES IN CELSIUS
  WCI - WIND CHILL INDEX
   HX - HEAT INDEX
  VSB - VISIBILITY
$$




USA.gov is the U.S. government's official web portal to all federal, state and local government web resources and services.